Hourly Weather Kuntaur

Today, 5 August, Wednesday

Time Temperature Precipitation Wind Pressure Humidity
00:00 +27°C° 0 mm 4 mps 759 mmHg 91%
01:00 +26°C° 0 mm 3 mps 759 mmHg 92%
02:00 +26°C° 0 mm 3 mps 758 mmHg 93%
03:00 +26°C° 0 mm 2 mps 759 mmHg 93%
04:00 +26°C° 0 mm 2 mps 759 mmHg 93%
05:00 +26°C° 0 mm 1 mps 759 mmHg 93%
06:00 +26°C° 0.7 mm 2 mps 759 mmHg 93%
07:00 +27°C° 0.7 mm 3 mps 759 mmHg 92%
08:00 +27°C° 0.7 mm 4 mps 759 mmHg 92%
09:00 +27°C° 0.2 mm 3 mps 760 mmHg 89%
10:00 +28°C° 0.2 mm 3 mps 760 mmHg 87%
11:00 +28°C° 0.2 mm 3 mps 760 mmHg 85%
12:00 +29°C° 0.4 mm 3 mps 759 mmHg 82%
13:00 +30°C° 0.4 mm 3 mps 758 mmHg 80%
14:00 +30°C° 0.4 mm 4 mps 758 mmHg 78%
15:00 +30°C° 0.3 mm 4 mps 758 mmHg 80%
16:00 +29°C° 0.3 mm 4 mps 758 mmHg 82%
17:00 +28°C° 0.3 mm 4 mps 758 mmHg 84%
18:00 +28°C° 0 mm 4 mps 758 mmHg 86%
19:00 +27°C° 0 mm 3 mps 759 mmHg 89%
20:00 +26°C° 0 mm 3 mps 759 mmHg 92%
21:00 +26°C° 0 mm 3 mps 759 mmHg 93%
22:00 +26°C° 0 mm 3 mps 760 mmHg 93%
23:00 +26°C° 0 mm 3 mps 760 mmHg 94%

Tomorrow, 6 August, Thursday

Time Temperature Precipitation Wind Pressure Humidity
00:00 +26°C° 0 mm 3 mps 759 mmHg 94%
01:00 +26°C° 0 mm 2 mps 759 mmHg 93%
02:00 +26°C° 0 mm 2 mps 758 mmHg 93%
03:00 +25°C° 0 mm 2 mps 758 mmHg 94%
04:00 +25°C° 0 mm 2 mps 758 mmHg 95%
05:00 +25°C° 0 mm 2 mps 759 mmHg 95%
06:00 +26°C° 0 mm 2 mps 759 mmHg 92%
07:00 +26°C° 0 mm 2 mps 759 mmHg 90%
08:00 +27°C° 0 mm 3 mps 759 mmHg 87%
09:00 +28°C° 0 mm 3 mps 759 mmHg 82%
10:00 +29°C° 0 mm 3 mps 759 mmHg 77%
11:00 +31°C° 0 mm 3 mps 759 mmHg 72%
12:00 +31°C° 0.3 mm 2 mps 759 mmHg 72%
13:00 +31°C° 0.3 mm 2 mps 758 mmHg 72%
14:00 +31°C° 0.3 mm 2 mps 758 mmHg 72%
15:00 +30°C° 0.6 mm 3 mps 758 mmHg 75%
16:00 +30°C° 0.6 mm 3 mps 758 mmHg 79%
17:00 +29°C° 0.6 mm 3 mps 758 mmHg 82%
18:00 +28°C° 0.3 mm 3 mps 758 mmHg 84%
19:00 +28°C° 0.3 mm 3 mps 759 mmHg 86%
20:00 +27°C° 0.3 mm 3 mps 759 mmHg 88%
21:00 +27°C° 0.3 mm 3 mps 760 mmHg 90%
22:00 +26°C° 0.3 mm 3 mps 760 mmHg 92%
23:00 +26°C° 0.3 mm 3 mps 760 mmHg 93%

Day after tomorrow, 7 August, Friday

Time Temperature Precipitation Wind Pressure Humidity
00:00 +26°C° 0.7 mm 3 mps 760 mmHg 94%
01:00 +26°C° 0.7 mm 3 mps 759 mmHg 94%
02:00 +26°C° 0.7 mm 2 mps 759 mmHg 95%
03:00 +26°C° 1.5 mm 2 mps 759 mmHg 95%
04:00 +26°C° 1.5 mm 2 mps 759 mmHg 96%
05:00 +26°C° 1.5 mm 2 mps 759 mmHg 96%
06:00 +26°C° 0 mm 3 mps 759 mmHg 93%
07:00 +27°C° 0 mm 3 mps 760 mmHg 91%
08:00 +27°C° 0 mm 3 mps 760 mmHg 88%
09:00 +29°C° 0.1 mm 3 mps 760 mmHg 82%
10:00 +30°C° 0.1 mm 3 mps 760 mmHg 76%
11:00 +31°C° 0.1 mm 3 mps 760 mmHg 71%
12:00 +32°C° 0.7 mm 2 mps 759 mmHg 69%
13:00 +32°C° 0.7 mm 2 mps 759 mmHg 68%
14:00 +34°C° 0.7 mm 2 mps 758 mmHg 67%
15:00 +32°C° 0.3 mm 2 mps 758 mmHg 69%
16:00 +33°C° 0.3 mm 3 mps 758 mmHg 70%
17:00 +33°C° 0.3 mm 3 mps 757 mmHg 72%
18:00 +30°C° 0 mm 4 mps 758 mmHg 76%
19:00 +29°C° 0 mm 4 mps 759 mmHg 80%
20:00 +28°C° 0 mm 4 mps 760 mmHg 83%
21:00 +28°C° 0 mm 4 mps 760 mmHg 85%
22:00 +27°C° 0 mm 4 mps 760 mmHg 86%
23:00 +27°C° 0 mm 4 mps 761 mmHg 87%

8 August, Saturday

Time Temperature Precipitation Wind Pressure Humidity
00:00 +27°C° 0 mm 4 mps 760 mmHg 88%
01:00 +26°C° 0 mm 4 mps 760 mmHg 90%
02:00 +26°C° 0 mm 4 mps 759 mmHg 91%
03:00 +26°C° 0 mm 4 mps 759 mmHg 92%
04:00 +26°C° 0 mm 3 mps 759 mmHg 93%
05:00 +26°C° 0 mm 2 mps 759 mmHg 94%
06:00 +27°C° 0 mm 3 mps 760 mmHg 90%
07:00 +27°C° 0 mm 3 mps 760 mmHg 87%
08:00 +28°C° 0 mm 4 mps 761 mmHg 84%
09:00 +30°C° 0.1 mm 4 mps 760 mmHg 78%
10:00 +32°C° 0.1 mm 4 mps 760 mmHg 73%
11:00 +33°C° 0.1 mm 4 mps 760 mmHg 68%
12:00 +34°C° 0.1 mm 4 mps 759 mmHg 66%
13:00 +34°C° 0.1 mm 4 mps 759 mmHg 65%
14:00 +35°C° 0.1 mm 4 mps 758 mmHg 64%
15:00 +34°C° 0.5 mm 4 mps 758 mmHg 67%
16:00 +34°C° 0.5 mm 4 mps 757 mmHg 70%
17:00 +33°C° 0.5 mm 4 mps 757 mmHg 73%
18:00 +32°C° 0.5 mm 4 mps 758 mmHg 77%
19:00 +29°C° 0.5 mm 4 mps 759 mmHg 82%
20:00 +28°C° 0.5 mm 4 mps 760 mmHg 86%
21:00 +28°C° 0 mm 4 mps 760 mmHg 87%
22:00 +28°C° 0 mm 4 mps 759 mmHg 88%
23:00 +27°C° 0 mm 5 mps 759 mmHg 89%

9 August, Sunday

Time Temperature Precipitation Wind Pressure Humidity
00:00 +27°C° 0 mm 4 mps 759 mmHg 89%
01:00 +27°C° 0 mm 4 mps 758 mmHg 90%
02:00 +27°C° 0 mm 4 mps 758 mmHg 90%
03:00 +27°C° 0 mm 3 mps 758 mmHg 92%
04:00 +27°C° 0 mm 3 mps 758 mmHg 93%
05:00 +26°C° 0 mm 2 mps 758 mmHg 95%
06:00 +27°C° 0.1 mm 3 mps 758 mmHg 91%
07:00 +28°C° 0.1 mm 4 mps 759 mmHg 88%
08:00 +29°C° 0.1 mm 5 mps 759 mmHg 85%
09:00 +30°C° 0 mm 5 mps 759 mmHg 78%
10:00 +33°C° 0 mm 5 mps 758 mmHg 71%
11:00 +34°C° 0 mm 5 mps 758 mmHg 64%
12:00 +35°C° 0 mm 6 mps 757 mmHg 62%
13:00 +35°C° 0 mm 6 mps 757 mmHg 61%
14:00 +36°C° 0 mm 6 mps 756 mmHg 59%
15:00 +35°C° 0 mm 6 mps 756 mmHg 61%
16:00 +34°C° 0 mm 6 mps 756 mmHg 63%
17:00 +34°C° 0 mm 6 mps 755 mmHg 66%
18:00 +32°C° 0 mm 5 mps 756 mmHg 71%
19:00 +30°C° 0 mm 4 mps 757 mmHg 76%
20:00 +28°C° 0 mm 3 mps 757 mmHg 82%
21:00 +28°C° 0 mm 4 mps 758 mmHg 81%
22:00 +28°C° 0 mm 4 mps 758 mmHg 81%
23:00 +28°C° 0 mm 4 mps 758 mmHg 81%

10 August, Monday

Time Temperature Precipitation Wind Pressure Humidity
00:00 +28°C° 0 mm 4 mps 757 mmHg 82%
01:00 +27°C° 0 mm 4 mps 757 mmHg 84%
02:00 +27°C° 0 mm 3 mps 756 mmHg 86%
03:00 +26°C° 0 mm 3 mps 756 mmHg 88%
04:00 +26°C° 0 mm 3 mps 756 mmHg 90%
05:00 +26°C° 0 mm 3 mps 756 mmHg 92%
06:00 +27°C° 0 mm 4 mps 756 mmHg 88%
07:00 +28°C° 0 mm 5 mps 757 mmHg 84%
08:00 +29°C° 0 mm 5 mps 757 mmHg 80%
09:00 +29°C° 0 mm 5 mps 757 mmHg 77%
10:00 +30°C° 0 mm 5 mps 757 mmHg 74%
11:00 +32°C° 0 mm 5 mps 757 mmHg 71%
12:00 +33°C° 0.1 mm 6 mps 756 mmHg 69%
13:00 +33°C° 0.1 mm 6 mps 755 mmHg 68%
14:00 +33°C° 0.1 mm 6 mps 755 mmHg 67%
15:00 +33°C° 0.1 mm 6 mps 755 mmHg 68%
16:00 +33°C° 0.1 mm 6 mps 755 mmHg 69%
17:00 +32°C° 0.1 mm 6 mps 755 mmHg 70%
18:00 +30°C° 0 mm 5 mps 755 mmHg 72%
19:00 +29°C° 0 mm 5 mps 756 mmHg 75%
20:00 +28°C° 0 mm 4 mps 756 mmHg 77%
21:00 +27°C° 0 mm 4 mps 757 mmHg 79%
22:00 +27°C° 0 mm 4 mps 757 mmHg 81%
23:00 +26°C° 0 mm 4 mps 757 mmHg 82%
Show more